Wind_Speed
16 17 17 17 17 17 17 17 17 17 16 16 15 15 14 14 14 13 13 12 12 11 11 11 10 10 9 9 8 8 7 7 6 7 7 7 7 7 6 7 7 7 7
18 18 18 17 17 18 18 18 18 18 18 17 17 16 16 15 15 14 14 14 13 13 13 12 12 11 11 10 10 9 9 8 8 8 8 8 8 7 7 7 8 9 9
19 19 19 19 19 19 19 19 19 19 19 19 18 18 17 17 17 16 16 16 15 15 15 14 14 13 12 12 12 11 12 11 11 10 10 9 9 9 9 9 9 10 10
19 20 20 20 20 20 21 20 20 20 20 20 20 19 19 18 18 18 18 18 17 17 16 16 16 15 14 14 14 14 13 13 13 12 11 11 11 11 11 11 11 12 12
20 20 20 21 21 22 22 23 22 22 22 21 21 21 20 20 20 19 19 19 19 18 18 18 18 17 16 16 15 15 15 15 14 14 13 13 13 13 13 13 13 14 14
21 21 21 22 22 23 23 24 24 24 23 23 23 22 22 22 21 20 20 20 20 19 19 19 19 19 18 18 17 17 17 17 16 16 15 15 15 15 15 15 16 16 16
22 22 23 23 23 24 24 24 25 25 25 24 24 24 23 23 22 22 22 21 21 21 20 20 20 20 20 20 19 19 19 18 18 18 17 17 17 18 18 18 17 17 18
23 23 24 24 24 24 25 25 25 25 26 26 25 25 25 24 24 24 23 23 22 22 22 21 21 20 20 21 21 21 20 20 20 19 20 20 20 20 20 20 20 20 20
25 25 25 25 25 25 26 26 26 26 27 27 27 26 27 27 26 26 25 24 24 23 23 23 22 22 22 22 22 22 22 21 21 21 21 22 22 22 22 22 22 21 22
26 27 27 27 27 27 27 28 28 28 29 29 29 28 28 28 27 27 27 26 25 25 25 25 25 25 24 24 24 24 24 23 23 23 23 23 23 23 23 24 24 23 24
27 28 28 28 29 29 29 29 30 30 30 31 31 31 31 30 29 29 29 28 27 27 27 27 27 27 26 26 26 26 26 25 25 25 25 26 26 26 25 25 25 25 25
29 29 29 30 31 31 31 31 31 31 31 32 32 33 33 32 31 30 30 30 30 29 28 28 28 28 28 28 28 28 28 28 27 27 27 28 28 27 27 27 27 27 26
30 30 31 31 31 32 32 32 32 32 32 32 32 33 33 33 32 32 31 32 32 31 31 31 30 30 30 30 31 31 31 30 30 30 30 30 30 30 29 29 28 28 28
30 31 31 31 32 32 33 33 33 33 32 32 32 33 33 34 33 33 33 33 34 33 33 33 33 33 33 33 33 33 33 32 32 32 32 32 32 32 32 31 31 30 30
30 31 32 32 33 33 34 34 33 33 33 33 32 33 33 34 34 34 35 35 35 36 35 35 35 35 35 35 35 35 35 34 34 33 33 33 33 34 34 33 34 33 33
30 31 32 32 32 32 33 34 34 34 34 33 32 33 34 34 35 35 35 36 37 37 36 36 36 35 35 36 36 36 36 36 35 35 35 35 34 35 35 34 34 35 35
30 30 31 32 32 32 33 34 34 34 35 35 34 34 34 35 35 36 36 36 37 37 37 38 38 37 37 37 37 37 38 38 37 37 36 36 36 36 37 37 37 37 37
30 30 31 32 32 33 34 34 34 35 35 36 36 36 36 36 36 37 38 38 38 38 39 39 40 39 39 38 39 39 39 39 38 38 38 38 38 38 38 38 39 39 39
31 31 31 32 33 33 34 34 34 36 37 37 38 38 38 38 38 38 39 39 39 39 40 40 40 40 40 40 40 40 40 40 40 40 40 40 40 41 40 40 40 41 41
32 32 32 32 33 33 33 34 35 35 36 37 37 38 39 40 40 40 40 41 40 40 40 41 41 42 42 42 42 42 42 42 42 43 43 43 43 43 42 42 42 42 43
33 33 33 34 34 34 34 35 35 36 37 37 37 37 38 40 40 41 41 41 41 42 42 43 43 43 44 44 44 44 44 43 43 44 44 44 45 45 44 44 44 44 45
34 34 35 35 35 35 35 36 36 36 37 37 38 39 39 40 40 40 41 41 42 43 44 45 45 44 45 45 45 45 45 45 45 45 45 46 46 46 46 45 46 46 46
34 35 35 35 35 35 36 36 36 36 36 38 38 38 40 40 40 40 41 41 42 43 43 44 44 45 45 46 46 46 47 46 46 46 47 47 46 46 46 46 47 47 47
35 35 35 35 35 36 36 37 37 37 36 37 38 39 40 40 40 40 41 42 42 43 43 43 43 44 45 45 46 46 47 47 47 48 48 48 47 47 47 48 48 48 48
34 35 35 35 35 36 37 38 38 38 38 38 39 39 39 40 40 40 40 41 42 43 43 43 44 44 45 45 45 46 45 46 47 48 49 48 49 48 48 48 49 49 49
35 35 36 36 36 36 37 38 38 39 39 39 39 40 40 40 40 40 40 41 42 42 43 43 43 43 44 45 45 45 45 46 46 48 48 48 48 48 48 48 48 49 49
Wind_Direction
248 248 248 250 248 248 247 246 245 244 242 242 242 242 242 242 242 241 239 240 240 240 239 239 240 243 246 248 248 245 246 249 251 251 250 247 246 248 248 248 247 247 249
248 248 248 249 248 249 248 247 246 245 244 243 242 242 242 243 243 243 242 244 245 245 244 244 244 243 246 246 246 247 249 253 253 253 252 252 251 253 256 253 251 249 253
249 248 250 250 251 250 249 249 249 246 245 244 244 243 243 243 244 244 244 244 247 248 247 246 247 246 246 248 248 250 254 255 256 255 255 254 254 255 258 258 255 254 255
252 249 249 250 251 250 250 249 249 248 246 247 246 245 245 246 247 246 246 246 247 249 250 249 249 249 249 251 251 253 254 255 256 256 256 255 255 255 257 259 259 258 259
254 251 250 249 250 250 249 249 249 248 248 247 248 247 246 247 249 248 250 249 249 250 251 251 250 250 251 252 251 252 254 256 256 257 258 257 258 259 259 260 261 262 263
255 253 251 250 250 250 250 249 248 249 248 248 248 248 248 249 249 250 251 250 249 250 252 251 251 251 251 252 251 252 255 256 256 258 259 260 262 264 264 263 264 265 266
256 255 253 252 251 250 250 249 249 248 248 249 249 249 249 250 250 251 252 252 251 249 249 250 250 251 252 253 253 253 255 256 256 258 259 261 263 265 266 265 265 267 268
256 254 254 253 252 251 250 250 250 249 249 249 249 248 248 249 250 251 251 252 252 251 250 251 251 253 255 254 253 254 256 257 257 259 261 262 264 265 266 266 267 269 270
257 255 254 254 253 253 251 250 250 250 250 250 250 249 249 250 251 251 251 251 251 251 251 250 252 254 256 257 256 255 256 258 259 260 263 264 266 266 268 268 269 270 271
257 256 255 255 255 253 252 251 251 251 252 252 251 251 250 250 250 250 251 251 251 251 252 253 254 256 258 258 258 258 258 258 260 262 263 264 266 267 268 269 270 271 271
259 258 257 256 256 255 254 253 252 252 252 252 253 252 251 251 250 251 251 252 252 253 254 255 256 257 259 259 259 260 260 261 261 263 264 264 266 267 267 268 269 270 271
261 259 258 257 257 256 255 254 253 254 254 253 253 253 252 251 252 253 253 252 252 253 254 256 258 257 259 259 260 261 262 263 264 265 265 265 265 266 267 267 268 269 270
264 261 259 258 257 256 256 255 254 254 254 254 254 253 253 252 254 254 254 254 254 254 255 256 257 258 259 260 261 263 264 263 263 265 266 266 266 267 267 267 267 268 269
263 262 260 258 257 256 256 256 255 256 256 256 255 255 255 255 255 255 255 256 256 256 257 257 257 259 260 261 262 264 264 264 264 265 266 265 266 267 267 267 267 268 269
264 262 259 258 257 256 255 255 255 256 256 257 257 258 258 257 256 257 256 256 256 257 258 258 258 260 261 262 263 264 263 264 265 265 266 267 267 267 266 267 267 267 268
263 262 260 258 257 256 255 255 257 257 257 257 259 260 260 259 258 258 258 257 257 258 258 260 260 261 263 263 263 264 264 264 264 266 266 267 268 268 267 267 267 268 268
264 263 260 257 255 255 255 255 256 256 256 257 258 260 260 260 260 260 260 259 258 258 258 260 260 261 262 263 263 263 264 264 265 266 266 266 267 268 268 267 267 268 268
265 264 261 258 256 257 257 257 255 256 257 258 259 259 260 259 260 260 261 260 260 259 259 260 260 261 262 263 264 264 265 264 265 265 266 266 267 267 268 268 268 268 269
265 265 263 260 258 258 258 258 257 257 258 259 259 261 261 262 261 261 262 261 261 260 260 260 260 261 262 263 263 265 265 265 264 265 265 266 267 267 268 269 269 269 269
265 265 263 261 260 260 259 260 259 259 259 259 260 262 263 263 262 261 262 262 260 261 262 262 262 262 262 264 264 265 265 265 265 266 266 266 267 268 268 270 270 270 270
266 265 263 262 261 260 261 261 261 261 261 260 260 262 263 263 263 263 262 261 261 261 262 263 263 263 263 264 265 265 265 265 266 266 267 267 268 268 269 270 271 271 271
267 266 264 263 262 262 262 262 262 262 261 261 262 262 263 266 265 265 264 264 263 263 263 264 263 263 264 265 265 266 266 265 266 266 267 267 268 269 270 271 271 272 271
267 266 264 263 263 263 262 262 262 263 263 262 262 265 266 266 265 265 266 267 265 264 265 264 263 263 264 264 266 267 267 266 266 267 268 269 270 270 270 271 271 272 273
267 267 265 263 262 263 262 262 263 263 263 263 264 266 266 267 267 267 267 267 267 267 266 265 265 264 264 265 266 267 266 267 267 268 268 269 269 270 271 271 272 272 273
268 266 265 263 263 263 263 262 263 264 264 265 266 266 266 267 268 269 269 269 270 270 269 267 266 265 266 267 267 267 268 269 269 268 268 269 269 270 271 272 273 272 273
268 266 265 264 264 265 264 264 264 265 266 267 266 266 267 268 269 269 270 270 270 270 269 268 267 267 268 268 267 267 269 271 271 270 269 269 270 270 271 272 273 272 272
Height
5831 5831 5832 5833 5834 5835 5836 5837 5838 5839 5840 5840 5841 5842 5843 5844 5844 5845 5846 5847 5848 5849 5850 5850 5851 5851 5852 5853 5853 5854 5855 5855 5856 5857 5857 5857 5858 5858 5859 5859 5860 5860 5861
5828 5828 5829 5830 5831 5832 5833 5834 5835 5836 5837 5838 5839 5840 5840 5841 5842 5843 5844 5845 5846 5847 5848 5849 5849 5850 5850 5851 5852 5852 5853 5854 5854 5855 5856 5856 5856 5857 5857 5858 5858 5859 5859
5824 5825 5826 5827 5828 5829 5830 5831 5832 5833 5834 5835 5836 5837 5838 5839 5840 5841 5842 5843 5844 5845 5846 5846 5847 5848 5848 5849 5850 5851 5851 5852 5853 5853 5854 5855 5855 5855 5856 5856 5856 5857 5857
5820 5821 5822 5823 5824 5825 5826 5828 5828 5830 5831 5832 5833 5834 5835 5836 5837 5838 5839 5840 5841 5842 5843 5844 5845 5845 5846 5847 5848 5848 5849 5850 5851 5851 5852 5853 5853 5853 5854 5854 5855 5855 5855
5816 5817 5818 5819 5820 5821 5823 5824 5825 5826 5827 5828 5829 5830 5831 5832 5834 5835 5836 5837 5838 5839 5840 5841 5842 5843 5843 5844 5845 5846 5847 5847 5848 5849 5850 5850 5851 5851 5851 5852 5852 5853 5853
5812 5813 5814 5815 5816 5817 5818 5819 5821 5822 5823 5824 5825 5826 5828 5829 5830 5831 5832 5834 5835 5836 5837 5838 5839 5840 5841 5841 5842 5843 5843 5844 5845 5846 5847 5847 5848 5848 5849 5849 5849 5850 5850
5808 5809 5810 5811 5812 5813 5814 5815 5816 5817 5819 5820 5821 5822 5823 5825 5826 5827 5829 5830 5831 5832 5833 5834 5835 5836 5837 5838 5839 5840 5840 5841 5842 5843 5844 5844 5845 5845 5845 5846 5846 5846 5847
5803 5804 5805 5806 5807 5808 5809 5810 5811 5813 5814 5815 5816 5818 5819 5820 5822 5823 5824 5826 5827 5828 5829 5830 5831 5832 5833 5834 5835 5836 5837 5837 5838 5839 5840 5840 5841 5841 5842 5842 5842 5843 5843
5798 5799 5800 5801 5802 5803 5804 5805 5806 5807 5809 5810 5811 5813 5814 5816 5817 5818 5820 5821 5822 5824 5825 5826 5827 5828 5829 5830 5831 5831 5832 5833 5834 5835 5836 5836 5836 5837 5837 5838 5838 5838 5838
5792 5793 5794 5795 5796 5797 5798 5800 5800 5802 5803 5804 5806 5807 5809 5810 5811 5813 5814 5816 5817 5818 5820 5821 5823 5824 5825 5825 5826 5827 5828 5828 5830 5830 5831 5831 5831 5832 5832 5833 5833 5833 5833
5786 5787 5788 5789 5790 5791 5792 5793 5794 5795 5797 5798 5800 5801 5803 5804 5806 5807 5809 5810 5812 5813 5814 5816 5817 5818 5819 5820 5821 5822 5823 5824 5825 5825 5826 5826 5826 5827 5827 5827 5828 5828 5828
5779 5780 5781 5782 5783 5784 5785 5787 5788 5789 5790 5791 5793 5795 5796 5798 5799 5801 5802 5804 5806 5807 5808 5810 5811 5812 5814 5815 5816 5817 5817 5818 5819 5820 5820 5821 5821 5821 5821 5822 5822 5822 5822
5772 5773 5774 5775 5776 5777 5778 5779 5780 5782 5783 5785 5786 5787 5789 5791 5793 5794 5796 5797 5799 5801 5802 5803 5805 5806 5808 5809 5810 5810 5811 5812 5813 5813 5814 5814 5815 5815 5815 5816 5816 5816 5816
5765 5765 5766 5768 5769 5769 5770 5772 5773 5775 5776 5778 5779 5781 5783 5784 5786 5787 5789 5791 5792 5794 5795 5797 5798 5799 5801 5802 5803 5803 5804 5805 5806 5806 5807 5807 5808 5808 5808 5809 5809 5810 5810
5757 5758 5758 5760 5761 5762 5763 5764 5766 5767 5769 5770 5772 5774 5775 5777 5778 5780 5781 5783 5785 5786 5787 5789 5791 5792 5793 5794 5795 5796 5797 5798 5798 5799 5800 5800 5801 5801 5801 5802 5802 5802 5802
5749 5750 5751 5752 5753 5754 5755 5757 5758 5760 5762 5763 5764 5766 5767 5769 5770 5772 5774 5775 5777 5778 5779 5781 5782 5784 5785 5786 5787 5788 5789 5790 5790 5791 5792 5792 5793 5793 5793 5794 5794 5794 5794
5741 5741 5742 5743 5745 5746 5748 5749 5751 5752 5754 5755 5757 5758 5760 5761 5762 5764 5765 5767 5768 5769 5771 5772 5774 5775 5776 5778 5779 5780 5780 5781 5782 5783 5783 5784 5784 5784 5785 5785 5786 5786 5786
5734 5734 5734 5735 5737 5738 5739 5741 5742 5744 5746 5747 5749 5750 5751 5753 5754 5755 5757 5758 5759 5761 5762 5763 5765 5766 5767 5769 5770 5771 5772 5772 5773 5774 5774 5775 5775 5776 5776 5776 5776 5777 5777
5725 5726 5726 5727 5728 5730 5731 5732 5734 5735 5737 5739 5740 5741 5743 5744 5745 5746 5748 5749 5750 5751 5753 5754 5755 5756 5758 5759 5760 5761 5762 5763 5763 5764 5765 5765 5765 5766 5766 5766 5766 5767 5767
5717 5718 5718 5719 5720 5721 5722 5723 5725 5726 5727 5729 5731 5732 5733 5734 5735 5737 5738 5739 5741 5742 5743 5744 5746 5747 5748 5749 5750 5751 5752 5753 5753 5754 5755 5755 5755 5755 5756 5756 5756 5757 5757
5709 5709 5710 5711 5712 5713 5714 5715 5716 5718 5719 5720 5722 5723 5724 5725 5726 5727 5728 5729 5730 5732 5733 5734 5735 5736 5737 5738 5739 5740 5741 5742 5742 5743 5744 5744 5745 5745 5745 5745 5745 5746 5746
5700 5700 5701 5702 5703 5704 5705 5706 5708 5709 5710 5711 5713 5714 5714 5715 5716 5716 5717 5718 5719 5721 5722 5723 5724 5725 5726 5727 5728 5729 5730 5732 5732 5732 5732 5733 5733 5733 5734 5734 5735 5735 5735
5691 5692 5692 5693 5694 5695 5696 5697 5698 5700 5701 5702 5704 5704 5705 5705 5705 5706 5707 5707 5708 5709 5710 5712 5713 5714 5715 5716 5717 5717 5718 5719 5720 5721 5721 5721 5721 5721 5722 5723 5723 5723 5722
5683 5683 5683 5684 5685 5686 5687 5688 5689 5691 5692 5693 5695 5695 5695 5695 5695 5696 5696 5696 5697 5698 5699 5700 5701 5703 5703 5704 5705 5706 5706 5707 5708 5709 5710 5709 5709 5709 5710 5710 5711 5710 5710
5673 5673 5674 5675 5676 5677 5678 5679 5680 5682 5683 5684 5685 5686 5686 5686 5686 5686 5686 5686 5687 5687 5688 5689 5690 5691 5692 5693 5693 5694 5694 5695 5695 5696 5697 5698 5698 5698 5697 5698 5698 5698 5698
5664 5664 5665 5666 5667 5668 5669 5670 5671 5672 5673 5674 5675 5676 5676 5676 5676 5676 5676 5676 5677 5677 5678 5679 5679 5680 5680 5681 5681 5682 5683 5683 5683 5683 5684 5685 5685 5686 5685 5685 5685 5685 5685